Weather in Kondratovo

Russia / Perm Krai     57°58′33″N   56°06′32″E
temp.,
°C
wind,
m/s
gust,
m/s
humid.,
%
clouds,
%
prec.,
mm/h
press.,
hPa
HPBL,
m
25 february, thu
thu2523:00−26nw22978 0.0 103119
02:00−28nw119831 0.0 103119
05:00−28w119824 0.0 103119
08:00−29wsw11981 0.0 103119
11:00−24wsw13910 0.0 1031226
14:00−18sw138053 0.0 1029407
17:00−17sw248541 0.0 1028462
20:00−23s12942 0.0 102820
26 february, fri
fri2623:00−25sse22943 0.0 102820
02:00−26se229247 0.0 102727
05:00−27ese229255 0.0 102638
08:00−28ese239310 0.0 102558
11:00−23se35896 0.0 1024247
14:00−18se368970 0.0 1022451
17:00−16se478885 0.0 1020606
20:00−18se389499 0.0 1018230
27 february, sat
sat2723:00−18se3119294 0.0 1016484
02:00−18se4129298 0.0 1013517
05:00−17se5138999 0.0 1010546
08:00−16ese51487100 0.0 1006565
11:00−15ese51292100 0.2 1004530
14:00−15ese51193100 0.6 1003545
17:00−14e51192100 1.1 1003624
20:00−16e51193100 0.6 1003589
28 february, sun
sun2823:00−16e51293100 1.1 1004540
02:00−17ene41092100 0.2 1003499
05:00−16ene41093100 0.4 1004498
08:00−17ene41093100 0.2 1005488
11:00−16ene4892100 0.5 1006505
14:00−14ene4790100 0.2 1007545
17:00−14ne4790100 0.3 1009512
20:00−16ene4894100 0.2 1011447
1 march, mon
mon123:00−18ene379399 0.4 1013415
02:00−19ne379694 0.1 1015367
05:00−21ne269690 0.1 1017179
08:00−24ne249631 0.0 101989
11:00−19ne258916 0.0 1019290
14:00−14nne128147 0.0 1019472
17:00−13nnw138573 0.0 1019490
20:00−18w119671 0.0 101820